Weather History for PASX - August, 2014

Change the Weather History Date:

Wednesday, August 13, 2014

  Actual Average Record
Temperature  
Mean Temperature 60 °F -  
Max Temperature 66 °F 61 °F 78 °F (1950)
Min Temperature 55 °F 47 °F 34 °F (1961)
Degree Days  
Heating Degree Days 4    
Growing Degree Days 10 (Base 50)    
Moisture  
Dew Point 50 °F    
Average Humidity 71    
Maximum Humidity 88    
Minimum Humidity 52    
Precipitation  
Precipitation 0.09 in - - ()
Sea Level Pressure  
Sea Level Pressure 29.55 in    
Wind  
Wind Speed 8 mph (ENE)    
Max Wind Speed 10 mph    
Max Gust Speed 16 mph    
Visibility 10 miles    
Events      
Averages and records for this station are not official NWS values.
T = Trace of Precipitation, MM = Missing Value Source: NWS Daily Summary

Daily Weather History Graph

Daily Weather History Graph

Search for Another Location

Airport or City:

Trip Planner

Search our weather history database for the weather conditions in past years. The results will help you decide how hot, cold, wet, or windy it might be!

Date:

Astronomy

Aug. 13, 2014 Rise Set
Actual Time 6:11 AM AKDT 10:04 PM AKDT
Civil Twilight 5:18 AM AKDT 10:57 PM AKDT
Nautical Twilight 3:54 AM AKDT 12:18 AM AKDT
Astronomical Twilight Sun does not rise Sun does not rise
Moon 10:36 PM AKDT (8/13) 11:04 AM AKDT (8/13)
Length of Visible Light 17h 39m
Length of Day
15h 52m
Waning Gibbous, 86% of the Moon is Illuminated
Aug 13
Waning Gibbous
Aug 17
Last Quarter
Aug 25
New
Sep 2
First Quarter
Sep 8
Full

Hourly Weather History & Observations

Time (AKDT) Temp. Dew Point Humidity Pressure Visibility Wind Dir Wind Speed Gust Speed Precip Events Conditions
12:16 AM 57.2 °F 48.2 °F 72% 29.55 in 10.0 mi East 10.4 mph - N/A   Overcast
12:36 AM 57.2 °F 48.2 °F 72% 29.55 in 10.0 mi East 9.2 mph - N/A   Overcast
12:56 AM 57.2 °F 48.2 °F 72% 29.55 in 10.0 mi East 8.1 mph 16.1 mph N/A   Scattered Clouds
1:16 AM 57.2 °F 48.2 °F 72% 29.55 in 10.0 mi East 8.1 mph - N/A   Mostly Cloudy
1:36 AM 59.0 °F 48.2 °F 67% 29.55 in 10.0 mi East 8.1 mph - N/A   Overcast
1:56 AM 59.0 °F 48.2 °F 67% 29.55 in 10.0 mi East 5.8 mph - N/A   Overcast
2:16 AM 59.0 °F 48.2 °F 67% 29.54 in 10.0 mi ENE 6.9 mph - N/A   Overcast
2:36 AM 59.0 °F 46.4 °F 63% 29.54 in 10.0 mi East 8.1 mph - N/A   Overcast
2:56 AM 60.8 °F 46.4 °F 59% 29.54 in 10.0 mi East 9.2 mph - N/A   Overcast
3:16 AM 60.8 °F 46.4 °F 59% 29.54 in 10.0 mi East 8.1 mph - N/A   Overcast
3:36 AM 60.8 °F 46.4 °F 59% 29.53 in 10.0 mi ENE 10.4 mph - N/A   Overcast
3:56 AM 60.8 °F 46.4 °F 59% 29.54 in 10.0 mi East 9.2 mph - N/A   Overcast
4:36 AM 59.0 °F 48.2 °F 67% 29.53 in 10.0 mi ENE 8.1 mph - N/A   Overcast
4:56 AM 57.2 °F 48.2 °F 72% 29.54 in 10.0 mi NE 6.9 mph - N/A   Overcast
5:16 AM 57.2 °F 48.2 °F 72% 29.53 in 10.0 mi NE 8.1 mph - N/A   Overcast
5:36 AM 55.4 °F 48.2 °F 77% 29.53 in 10.0 mi NE 9.2 mph - 0.01 in   Overcast
6:16 AM 55.4 °F 50.0 °F 82% 29.52 in 10.0 mi ENE 5.8 mph - N/A   Overcast
6:36 AM 57.2 °F 50.0 °F 77% 29.52 in 10.0 mi ENE 8.1 mph - N/A   Overcast
7:16 AM 55.4 °F 48.2 °F 77% 29.51 in 10.0 mi NE 6.9 mph - N/A   Overcast
7:36 AM 55.4 °F 48.2 °F 77% 29.51 in 10.0 mi NE 10.4 mph - N/A   Overcast
7:56 AM 55.4 °F 48.2 °F 77% 29.51 in 10.0 mi ENE 4.6 mph - 0.01 in   Overcast
8:16 AM 55.4 °F 50.0 °F 82% 29.52 in 10.0 mi ENE 10.4 mph - N/A   Overcast
8:36 AM 55.4 °F 50.0 °F 82% 29.52 in 10.0 mi NE 10.4 mph - 0.02 in   Overcast
8:56 AM 55.4 °F 50.0 °F 82% 29.52 in 10.0 mi ENE 10.4 mph - 0.03 in   Overcast
9:16 AM 55.4 °F 50.0 °F 82% 29.52 in 10.0 mi NE 9.2 mph - 0.01 in   Overcast
9:36 AM 55.4 °F 50.0 °F 82% 29.52 in 10.0 mi NE 6.9 mph - 0.02 in   Overcast
9:56 AM 55.4 °F 51.8 °F 88% 29.52 in 10.0 mi NE 8.1 mph - 0.02 in   Overcast
10:16 AM 55.4 °F 51.8 °F 88% 29.53 in 10.0 mi NE 10.4 mph - N/A   Overcast
10:36 AM 55.4 °F 51.8 °F 88% 29.53 in 10.0 mi NE 9.2 mph - 0.01 in   Overcast
10:56 AM 55.4 °F 51.8 °F 88% 29.53 in 10.0 mi NE 8.1 mph - 0.01 in   Overcast
11:16 AM 55.4 °F 51.8 °F 88% 29.53 in 10.0 mi NE 8.1 mph - N/A   Overcast
11:36 AM 55.4 °F 51.8 °F 88% 29.53 in 10.0 mi NE 6.9 mph - 0.01 in   Overcast
11:56 AM 57.2 °F 51.8 °F 82% 29.53 in 10.0 mi NE 9.2 mph - 0.01 in   Overcast
12:16 PM 57.2 °F 53.6 °F 88% 29.53 in 10.0 mi NE 9.2 mph - N/A   Overcast
12:36 PM 57.2 °F 53.6 °F 88% 29.54 in 10.0 mi NE 8.1 mph - N/A   Overcast
12:56 PM 59.0 °F 51.8 °F 77% 29.54 in 10.0 mi NNE 8.1 mph - N/A   Overcast
1:16 PM 59.0 °F 53.6 °F 82% 29.55 in 10.0 mi NNE 8.1 mph - N/A   Overcast
1:36 PM 60.8 °F 51.8 °F 72% 29.55 in 10.0 mi NE 8.1 mph - N/A   Overcast
1:56 PM 60.8 °F 53.6 °F 77% 29.55 in 10.0 mi NNE 5.8 mph - N/A   Overcast
2:16 PM 60.8 °F 53.6 °F 77% 29.55 in 10.0 mi NNE 6.9 mph - N/A   Overcast
2:36 PM 62.6 °F 53.6 °F 72% 29.55 in 10.0 mi NNE 3.5 mph - N/A   Overcast
2:56 PM 62.6 °F 51.8 °F 68% 29.55 in 10.0 mi NNE 5.8 mph - N/A   Overcast
3:16 PM 62.6 °F 53.6 °F 72% 29.55 in 10.0 mi North 8.1 mph - N/A   Overcast
3:36 PM 62.6 °F 53.6 °F 72% 29.55 in 10.0 mi NNE 8.1 mph - N/A   Overcast
3:56 PM 62.6 °F 53.6 °F 72% 29.55 in 10.0 mi North 8.1 mph - N/A   Overcast
4:16 PM 64.4 °F 53.6 °F 68% 29.55 in 10.0 mi NE 6.9 mph - N/A   Overcast
4:56 PM 66.2 °F 51.8 °F 60% 29.55 in 10.0 mi NE 6.9 mph - N/A   Mostly Cloudy
5:36 PM 66.2 °F 50.0 °F 56% 29.55 in 10.0 mi ENE 9.2 mph - N/A   Scattered Clouds
5:56 PM 66.2 °F 50.0 °F 56% 29.55 in 10.0 mi NE 8.1 mph - N/A   Partly Cloudy
7:16 PM 66.2 °F 48.2 °F 52% 29.57 in 10.0 mi East 10.4 mph - N/A   Mostly Cloudy
8:16 PM 64.4 °F 48.2 °F 56% 29.57 in 10.0 mi NE 8.1 mph - N/A   Mostly Cloudy
8:36 PM 64.4 °F 48.2 °F 56% 29.58 in 10.0 mi ENE 5.8 mph - N/A   Mostly Cloudy
8:56 PM 64.4 °F 48.2 °F 56% 29.58 in 10.0 mi East 6.9 mph - N/A   Overcast
9:16 PM 64.4 °F 46.4 °F 52% 29.59 in 10.0 mi ESE 6.9 mph - N/A   Mostly Cloudy
9:36 PM 62.6 °F 46.4 °F 55% 29.59 in 10.0 mi East 9.2 mph - N/A   Mostly Cloudy
9:56 PM 62.6 °F 46.4 °F 55% 29.60 in 10.0 mi ESE 8.1 mph - N/A   Mostly Cloudy
10:16 PM 60.8 °F 46.4 °F 59% 29.62 in 10.0 mi SE 3.5 mph - N/A   Overcast
10:36 PM 60.8 °F 46.4 °F 59% 29.62 in 10.0 mi SE 6.9 mph - N/A   Overcast
10:56 PM 59.0 °F 46.4 °F 63% 29.63 in 10.0 mi SE 5.8 mph - N/A   Mostly Cloudy
11:16 PM 59.0 °F 46.4 °F 63% 29.63 in 10.0 mi ESE 6.9 mph - N/A   Mostly Cloudy
11:36 PM 59.0 °F 46.4 °F 63% 29.64 in 10.0 mi ESE 6.9 mph - N/A   Scattered Clouds
11:56 PM 57.2 °F 46.4 °F 67% 29.64 in 10.0 mi East 6.9 mph - N/A   Clear